Miscellaneous Local Product
Issued by NWS North Platte, NE

Home | Current Version | Previous Version | Text Only | Print | Product List | Glossary On
Versions: 1 2 3 4 5 6 7 8 9 10 11 12 13 14 15 16 17 18 19 20 21 22 23 24 25 26 27 28 29 30 31 32 33 34 35 36 37 38 39 40 41 42 43 44 45 46 47 48 49 50
000
AXUS43 KLBF 020210
MISLBF


WESTERN AND NORTH CENTRAL NEBRASKA HOURLY WEATHER ROUNDUP
NATIONAL WEATHER SERVICE NORTH PLATTE NE
900 PM CDT SAT AUG 01 2015

***STATIONS NOT REPORTING VARIABLES SUCH AS SKY/WEATHER OR
PRESSURE ARE PROVIDED BY THE NEBRASKA DEPARTMENT OF
ROADS...RAWS...AND APRS NETWORKS...AND ARE NOT UNDER
NATIONAL WEATHER SERVICE QUALITY CONTROL***

...OBSERVATIONS IN AND NEAR THE EASTERN PANHANDLE OF NEBRASKA...

CITY           SKY/WX    TMP DP  RH WIND       PRES   REMARKS
PINE RIDGE     CLEAR     76  65  68 E10       29.96R
CHADRON        CLEAR     81  58  45 SE7       29.92R
ALLIANCE       CLEAR     73  62  68 S12       29.99R
SIDNEY         MOCLDY    73  56  54 SE22G29   30.05S
BIG SPRINGS      N/A     75  56  52 S16         N/A
$$

...OBSERVATIONS IN NORTH CENTRAL NEBRASKA...

CITY           SKY/WX    TMP DP  RH WIND       PRES   REMARKS
VALENTINE      MOCLDY    73  61  65 SW8       29.93F
THEDFORD       PTCLDY    76  62  60 CALM      29.97R
AINSWORTH      MOCLDY    75  62  62 SW6       29.95R
O`NEILL        CLEAR     76  61  60 CALM      29.91S
ORD            MOCLDY    73  62  68 SE3       29.91S
BROKEN BOW     CLOUDY    74  62  66 CALM      29.95R
SPRINGVIEW       N/A     77  65  65 CALM        N/A
CHAMBERS         N/A     72  59  62 CALM        N/A
EWING            N/A     72  63  72 CALM        N/A
$$

...OBSERVATIONS IN SOUTHWEST NEBRASKA AND FAR NORTHEAST COLORADO...

CITY           SKY/WX    TMP DP  RH WIND       PRES   REMARKS
WRAY           MOCLDY    84  50  30 SE15      29.99F
IMPERIAL       MOCLDY    81  54  39 N17       30.05R
OGALLALA       CLOUDY    73  62  68 S14       30.00S
NORTH PLATTE   CLOUDY    74  64  71 E3        29.96R
MCCOOK         PTCLDY    82  56  40 S9        29.96R
LEXINGTON      MOCLDY    77  65  65 S6        29.96R
PAXTON           N/A     75  58  55 S5          N/A
BRADY            N/A     75  64  70 CALM        N/A
CALLAWAY         N/A     74  66  76 S12         N/A
$$

...NORTH PLATTE AREA...

CITY           SKY/WX    TMP DP  RH WIND       PRES   REMARKS
AIRPORT        CLOUDY    74  64  71 E3        29.96R
DOWNTOWN         N/A     79  65  62 CALM        N/A
SANDRIDGE        N/A     77  64  63 CALM        N/A
HILLCREST        N/A     76  64  65 CALM        N/A
$$

...SOME WEATHER OBSERVATIONS FROM AROUND THE REGION...

CITY           SKY/WX    TMP DP  RH WIND       PRES   REMARKS
DENVER         MOCLDY    80  53  39 SE17      30.07R
LARAMIE        MOCLDY    73  41  31 E9        30.22R
CHEYENNE       PTCLDY    79  46  31 E5        30.14R
SCOTTSBLUFF    CLEAR     76  56  49 SE13      30.00R
RAPID CITY     CLEAR     79  59  50 S7        29.91S
PIERRE         CLEAR     79  50  36 N8        29.80S
WINNER         FAIR      82  58  43 SW12      29.86F
SIOUX FALLS    PTCLDY    79  64  60 SW10      29.84S
OMAHA          PTCLDY    79  71  76 S8        29.89S
GRAND ISLAND   CLOUDY    74  69  85 SE3       29.92F
KANSAS CITY    PTCLDY    75  62  64 SE16      29.96S
WICHITA        PTCLDY    82  71  69 S8        29.95S
HAYS           CLEAR     82  59  44 S8        29.95S
LIBERAL        PTCLDY    81  64  57 S9        30.01R
GOODLAND       MOCLDY    77  56  48 S9        30.03R
$$



USA.gov is the U.S. government's official web portal to all federal, state and local government web resources and services.